Weather History for Martinsville, VA

Change the Weather History Date:

Thursday, June 20, 2013

  Actual Average (KGSO) Record (KGSO)
Temperature  
Mean Temperature 72 °F 76 °F  
Max Temperature 82 °F 86 °F 100 °F (1924)
Min Temperature 62 °F 67 °F 53 °F (1959)
Degree Days  
Heating Degree Days 0 0  
Month to date heating degree days 5  
Since 1 June heating degree days 5  
Since 1 July heating degree days 3617  
Cooling Degree Days 8 11  
Month to date cooling degree days 183  
Year to date cooling degree days 342  
Since 1 June cooling degree days 183  
Growing Degree Days 22 (Base 50)    
Moisture  
Dew Point 64 °F    
Average Humidity 83    
Maximum Humidity 98    
Minimum Humidity 53    
Precipitation  
Precipitation 0.00 in 0.13 in 2.18 in (1922)
Month to date precipitation 2.52  
Year to date precipitation 19.22  
Sea Level Pressure  
Sea Level Pressure 30.26 in    
Wind  
Wind Speed 1 mph (SE)    
Max Wind Speed 6 mph    
Max Gust Speed -    
Visibility 6 miles    
Events      
T = Trace of Precipitation, MM = Missing Value Source: NWS Daily Summary

Daily Weather History Graph

Daily Weather History Graph

Search for Another Location

Airport:

Trip Planner

Search our weather history database for the weather conditions in past years. The results will help you decide how hot, cold, wet, or windy it might be!

Date:

Astronomy

Jun. 20, 2013 Rise Set
Actual Time 6:01 AM EDT 8:41 PM EDT
Civil Twilight 5:31 AM EDT 9:12 PM EDT
Nautical Twilight 4:52 AM EDT 9:50 PM EDT
Astronomical Twilight 4:10 AM EDT 10:33 PM EDT
Moon 5:44 PM EDT 3:23 AM EDT
Length of Visible Light 15h 41m
Length of Day
14h 40m
Waxing Gibbous, 89% of the Moon is Illuminated
Jun 20
Waxing Gibbous
Jun 23
Full
Jun 30
Last Quarter
Jul 8
New
Jul 15
First Quarter

Hourly Weather History & Observations

Time (EDT) Temp. Heat Index Dew Point Humidity Pressure Visibility Wind Dir Wind Speed Gust Speed Precip Events Conditions
12:15 AM 64.9 °F - 64.0 °F 97% 30.19 in 4.0 mi Calm Calm - N/A   Mostly Cloudy
12:35 AM 64.4 °F - 63.5 °F 97% 30.19 in 3.0 mi Calm Calm - N/A   Mostly Cloudy
12:55 AM 64.0 °F - 63.1 °F 97% 30.20 in 2.5 mi Calm Calm - N/A   Scattered Clouds
1:15 AM 64.4 °F - 63.5 °F 97% 30.20 in 3.0 mi Calm Calm - N/A   Overcast
1:35 AM 65.3 °F - 64.4 °F 97% 30.20 in 5.0 mi Calm Calm - N/A   Overcast
1:55 AM 64.9 °F - 64.0 °F 97% 30.20 in 4.0 mi Calm Calm - N/A   Overcast
2:15 AM 64.6 °F - 63.9 °F 98% 30.20 in 3.0 mi NNW 3.5 mph - N/A   Overcast
2:35 AM 65.1 °F - 64.0 °F 96% 30.20 in 4.0 mi Calm Calm - N/A   Overcast
2:55 AM 65.3 °F - 64.0 °F 96% 30.20 in 5.0 mi Calm Calm - N/A   Mostly Cloudy
3:15 AM 64.9 °F - 63.9 °F 96% 30.20 in 5.0 mi Calm Calm - N/A   Mostly Cloudy
3:35 AM 64.8 °F - 63.7 °F 96% 30.20 in 4.0 mi Calm Calm - N/A   Overcast
3:55 AM 64.4 °F - 63.5 °F 97% 30.20 in 2.5 mi Calm Calm - N/A   Overcast
4:15 AM 64.8 °F - 64.0 °F 98% 30.21 in 3.0 mi Calm Calm - N/A   Overcast
4:35 AM 65.7 °F - 64.8 °F 97% 30.22 in 4.0 mi Calm Calm - N/A   Overcast
4:55 AM 66.2 °F - 64.9 °F 96% 30.22 in 4.0 mi Calm Calm - N/A   Overcast
5:15 AM 66.0 °F - 64.8 °F 96% 30.22 in 4.0 mi Calm Calm - N/A   Overcast
5:35 AM 65.7 °F - 64.8 °F 97% 30.23 in 4.0 mi Calm Calm - N/A   Overcast
5:55 AM 64.9 °F - 64.0 °F 97% 30.24 in 3.0 mi Calm Calm - N/A   Overcast
6:15 AM 64.9 °F - 64.0 °F 97% 30.24 in 2.0 mi Calm Calm - N/A   Overcast
6:35 AM 64.6 °F - 63.7 °F 97% 30.24 in 1.8 mi Calm Calm - N/A   Mostly Cloudy
6:55 AM 64.8 °F - 64.0 °F 98% 30.25 in 2.5 mi Calm Calm - N/A   Mostly Cloudy
7:15 AM 66.2 °F - 64.9 °F 96% 30.26 in 3.0 mi Calm Calm - N/A   Overcast
7:35 AM 66.4 °F - 64.9 °F 95% 30.26 in 3.0 mi Calm Calm - N/A   Overcast
7:55 AM 67.1 °F - 64.8 °F 92% 30.27 in 4.0 mi SE 3.5 mph - N/A   Overcast
8:15 AM 67.5 °F - 64.9 °F 92% 30.28 in 5.0 mi Calm Calm - N/A   Overcast
8:35 AM 68.0 °F - 64.9 °F 90% 30.28 in 5.0 mi ESE 3.5 mph - N/A   Overcast
8:55 AM 68.2 °F - 64.6 °F 88% 30.28 in 7.0 mi Calm Calm - N/A   Overcast
9:15 AM 68.7 °F - 65.3 °F 89% 30.29 in 7.0 mi Calm Calm - N/A   Overcast
9:35 AM 68.9 °F - 64.8 °F 87% 30.30 in 7.0 mi Calm Calm - N/A   Overcast
9:55 AM 68.9 °F - 64.8 °F 87% 30.30 in 7.0 mi SE 3.5 mph - N/A   Overcast
10:15 AM 68.9 °F - 64.9 °F 87% 30.30 in 7.0 mi Calm Calm - N/A   Overcast
10:35 AM 68.9 °F - 64.6 °F 86% 30.31 in 7.0 mi SE 4.6 mph - N/A   Overcast
10:55 AM 69.1 °F - 64.9 °F 87% 30.31 in 7.0 mi ESE 3.5 mph - N/A   Overcast
11:15 AM 69.8 °F - 64.6 °F 83% 30.31 in 7.0 mi SE 4.6 mph - N/A   Overcast
11:35 AM 70.7 °F - 64.4 °F 80% 30.31 in 7.0 mi SE 3.5 mph - N/A   Overcast
11:55 AM 71.8 °F - 64.6 °F 78% 30.31 in 7.0 mi Calm Calm - N/A   Overcast
12:15 PM 72.9 °F - 64.9 °F 76% 30.31 in 10.0 mi Calm Calm - N/A   Overcast
12:35 PM 73.2 °F - 64.9 °F 75% 30.31 in 10.0 mi Calm Calm - N/A   Overcast
12:55 PM 74.7 °F - 64.4 °F 70% 30.31 in 10.0 mi SE 3.5 mph - N/A   Overcast
1:15 PM 75.2 °F - 64.4 °F 69% 30.31 in 10.0 mi SSE 4.6 mph - N/A   Overcast
1:35 PM 77.5 °F - 63.7 °F 62% 30.31 in 10.0 mi SE 5.8 mph - N/A   Scattered Clouds
1:55 PM 79.3 °F - 64.4 °F 60% 30.29 in 10.0 mi WSW 3.5 mph - N/A   Scattered Clouds
2:15 PM 79.3 °F - 64.0 °F 59% 30.29 in 10.0 mi SSE 4.6 mph - N/A   Scattered Clouds
2:35 PM 80.1 °F 81.6 °F 63.7 °F 57% 30.29 in 10.0 mi ESE 3.5 mph - N/A   Scattered Clouds
2:55 PM 78.4 °F - 63.3 °F 60% 30.28 in 10.0 mi ESE 4.6 mph - N/A   Mostly Cloudy
3:15 PM 80.8 °F 82.2 °F 63.7 °F 56% 30.27 in 10.0 mi SE 4.6 mph - N/A   Scattered Clouds
3:35 PM 81.0 °F 82.2 °F 63.1 °F 54% 30.27 in 10.0 mi SSE 3.5 mph - N/A   Scattered Clouds
3:55 PM 81.9 °F 83.2 °F 63.7 °F 54% 30.26 in 10.0 mi East 4.6 mph - N/A   Scattered Clouds
4:15 PM 81.5 °F 82.8 °F 63.1 °F 54% 30.26 in 10.0 mi Calm Calm - N/A   Scattered Clouds
4:35 PM 81.9 °F 83.1 °F 63.3 °F 53% 30.25 in 10.0 mi ESE 4.6 mph - N/A   Scattered Clouds
4:55 PM 82.0 °F 83.3 °F 63.3 °F 53% 30.25 in 10.0 mi SE 3.5 mph - N/A   Mostly Cloudy
5:15 PM 82.2 °F 83.7 °F 63.9 °F 54% 30.25 in 10.0 mi Calm Calm - N/A   Scattered Clouds
5:35 PM 79.5 °F - 64.9 °F 61% 30.25 in 10.0 mi Calm Calm - N/A   Scattered Clouds
5:55 PM 79.3 °F - 65.3 °F 62% 30.24 in 10.0 mi SSE 3.5 mph - N/A   Mostly Cloudy
6:15 PM 79.3 °F - 65.5 °F 62% 30.24 in 10.0 mi Calm Calm - N/A   Mostly Cloudy
6:35 PM 80.1 °F 81.9 °F 64.9 °F 60% 30.24 in 10.0 mi Calm Calm - N/A   Scattered Clouds
6:55 PM 77.5 °F - 64.9 °F 65% 30.24 in 10.0 mi Calm Calm - N/A   Clear
7:15 PM 79.3 °F - 65.3 °F 62% 30.25 in 10.0 mi Calm Calm - N/A   Clear
7:35 PM 78.3 °F - 65.3 °F 64% 30.25 in 10.0 mi Calm Calm - N/A   Clear
7:55 PM 76.8 °F - 65.8 °F 69% 30.25 in 10.0 mi Calm Calm - N/A   Clear
8:15 PM 73.2 °F - 67.5 °F 82% 30.26 in 10.0 mi Calm Calm - N/A   Clear
8:35 PM 70.2 °F - 67.1 °F 90% 30.26 in 10.0 mi Calm Calm - N/A   Clear
8:55 PM 68.5 °F - 65.5 °F 90% 30.26 in 10.0 mi Calm Calm - N/A   Clear
9:15 PM 67.1 °F - 65.5 °F 95% 30.26 in 7.0 mi Calm Calm - N/A   Clear
9:35 PM 66.2 °F - 64.4 °F 94% 30.26 in 4.0 mi Calm Calm - N/A   Clear
9:55 PM 65.1 °F - 63.1 °F 93% 30.27 in 5.0 mi Calm Calm - N/A   Clear
10:15 PM 64.6 °F - 63.3 °F 96% 30.28 in 5.0 mi Calm Calm - N/A   Clear
10:35 PM 64.4 °F - 63.3 °F 96% 30.28 in 4.0 mi Calm Calm - N/A   Clear
10:55 PM 63.9 °F - 63.0 °F 97% 30.29 in 2.5 mi Calm Calm - N/A   Clear
11:15 PM 63.0 °F - 62.2 °F 97% 30.29 in 1.0 mi NW 3.5 mph - N/A   Mist
11:35 PM 63.1 °F - 62.1 °F 96% 30.29 in 5.0 mi Calm Calm - N/A   Clear
11:55 PM 62.6 °F - 61.7 °F 97% 30.29 in 2.0 mi Calm Calm - N/A   Clear